Date String (YYYY-MM-DD hh:mm:ss) UTC,Instrument flags,Ambient pressure (hPa),Sample flow (lpm),Bypass flow (lpm),Sample temperature (°C),Ambient temperature (°C),ASC tube jacket temperature (°C),LED temperature (°C),Box temperature (°C),Sample RH (%),Span deviation,Mass concentration (μg/m³),Mass concentration (μg/m³),Mass concentration (μg/m³)
DateTimeUTC,F1_M11,P_M11,Q1_M11,Q2_M11,T1_M11,T2_M11,T3_M11,T4_M11,T5_M11,U1_M11,ZSPAN_M11,X0_M11,X2_M11,X1_M11
2022-08-27 06:00:00,,0826.0,5.01,0.00,30.1,28.8,00.0,38.9,31.9,25.6,0000.0,0007.33,0004.12,0003.62
2022-08-27 06:01:00,,0826.0,4.99,0.00,30.1,28.9,00.0,38.9,31.9,25.6,0000.0,0007.12,0004.10,0003.61
2022-08-27 06:02:00,,0826.0,4.99,0.00,30.1,28.9,00.0,38.9,32.0,25.5,0000.0,0007.05,0004.10,0003.59
2022-08-27 06:03:00,,0826.0,5.00,0.00,30.1,29.0,00.0,38.9,32.0,25.5,0000.0,0007.60,0004.10,0003.58
2022-08-27 06:04:00,,0825.9,4.99,0.00,30.1,29.0,00.0,38.9,32.0,25.5,0000.0,0007.99,0004.07,0003.57
2022-08-27 06:05:00,,0826.0,5.01,0.00,30.1,29.0,00.0,38.9,32.0,25.3,0000.0,0007.98,0004.05,0003.56
2022-08-27 06:06:00,,0825.9,5.01,0.00,30.2,29.0,00.0,38.9,32.0,25.2,0000.0,0008.23,0004.04,0003.55
2022-08-27 06:07:00,,0825.9,5.00,0.00,30.2,29.1,00.0,38.9,32.0,25.3,0000.0,0008.54,0004.04,0003.55
2022-08-27 06:08:00,,0825.9,5.00,0.00,30.2,29.1,00.0,39.0,32.1,25.3,0000.0,0008.52,0004.04,0003.54
2022-08-27 06:09:00,,0825.9,5.00,0.00,30.2,29.1,00.0,39.0,32.1,25.3,0000.0,0008.52,0004.02,0003.54
2022-08-27 06:10:00,,0825.8,4.99,0.00,30.2,29.2,00.0,39.0,32.1,25.2,0000.0,0008.58,0004.01,0003.55
2022-08-27 06:11:00,,0825.8,5.02,0.00,30.3,29.2,00.0,39.0,32.1,25.2,0000.0,0008.64,0004.00,0003.55
2022-08-27 06:12:00,,0825.8,5.00,0.00,30.3,29.2,00.0,39.0,32.1,25.2,0000.0,0008.71,0004.03,0003.55
2022-08-27 06:13:00,,0826.2,5.00,0.00,30.3,29.2,00.0,39.0,32.2,25.2,0000.0,0008.70,0004.02,0003.55
2022-08-27 06:14:00,,0825.9,5.01,0.00,30.3,29.3,00.0,39.1,32.2,25.2,0000.0,0008.34,0004.01,0003.56
2022-08-27 06:15:00,,0825.7,5.00,0.00,30.4,29.3,00.0,39.1,32.2,25.2,0000.0,0007.83,0004.04,0003.57
2022-08-27 06:16:00,,0825.7,5.00,0.00,30.4,29.3,00.0,39.1,32.2,25.0,0000.0,0008.07,0004.05,0003.57
2022-08-27 06:17:00,,0825.7,4.99,0.00,30.4,29.3,00.0,39.1,32.2,25.2,0000.0,0008.14,0004.04,0003.57
2022-08-27 06:18:00,,0825.7,5.01,0.00,30.4,29.3,00.0,39.2,32.3,25.2,0000.0,0007.76,0004.04,0003.58
2022-08-27 06:19:00,,0825.7,4.99,0.00,30.4,29.3,00.0,39.2,32.3,25.0,0000.0,0007.80,0004.04,0003.58
2022-08-27 06:20:00,,0825.7,5.00,0.00,30.4,28.3,00.0,39.1,32.2,24.9,0000.0,0007.86,0004.04,0003.58
2022-08-27 06:21:00,,0825.7,5.01,0.00,30.4,27.2,00.0,39.1,32.1,24.8,0000.0,0007.81,0004.06,0003.58
2022-08-27 06:22:00,,0825.7,5.00,0.00,30.3,27.1,00.0,39.0,32.0,24.9,0000.0,0007.71,0004.07,0003.58
2022-08-27 06:23:00,,0825.7,5.00,0.00,30.2,27.3,00.0,39.0,31.8,25.0,0000.0,0007.68,0004.05,0003.58
2022-08-27 06:24:00,,0825.6,4.99,0.00,30.1,27.6,00.0,39.0,31.8,25.1,0000.0,0007.73,0004.02,0003.58
2022-08-27 06:25:00,,0825.6,5.00,0.00,30.1,27.8,00.0,38.9,31.8,25.1,0000.0,0008.14,0004.01,0003.57
2022-08-27 06:26:00,,0825.6,5.01,0.00,30.1,28.1,00.0,38.9,31.8,25.2,0000.0,0008.58,0003.99,0003.55
2022-08-27 06:27:00,,0825.6,5.00,0.00,30.1,28.2,00.0,38.9,31.8,25.2,0000.0,0008.37,0003.95,0003.55
2022-08-27 06:28:00,,0825.6,5.00,0.00,30.1,28.4,00.0,38.9,31.8,25.2,0000.0,0008.17,0003.98,0003.54
2022-08-27 06:29:00,,0825.6,5.01,0.00,30.1,28.5,00.0,38.9,31.9,25.3,0000.0,0008.04,0003.97,0003.52
2022-08-27 06:30:00,,0825.6,5.00,0.00,30.1,28.6,00.0,38.9,31.9,25.5,0000.0,0008.29,0004.02,0003.52
2022-08-27 06:31:00,,0825.6,5.00,0.00,30.1,28.7,00.0,38.9,31.9,25.3,0000.0,0008.21,0004.01,0003.51
2022-08-27 06:32:00,,0825.5,4.99,0.00,30.1,28.8,00.0,38.9,31.9,25.1,0000.0,0008.22,0004.00,0003.50
2022-08-27 06:33:00,,0825.5,5.02,0.00,30.1,28.8,00.0,38.9,31.9,25.1,0000.0,0008.43,0004.02,0003.48
2022-08-27 06:34:00,,0825.5,5.00,0.00,30.1,28.9,00.0,38.9,32.0,24.8,0000.0,0008.41,0004.01,0003.48
2022-08-27 06:35:00,,0825.4,5.02,0.00,30.1,28.9,00.0,38.9,32.0,24.7,0000.0,0008.23,0004.02,0003.47
2022-08-27 06:36:00,,0825.4,5.00,0.00,30.2,29.0,00.0,38.9,32.0,24.6,0000.0,0008.32,0004.01,0003.46
2022-08-27 06:37:00,,0825.4,5.00,0.00,30.2,29.0,00.0,39.0,32.0,24.6,0000.0,0008.00,0004.02,0003.45
2022-08-27 06:38:00,,0825.4,4.99,0.00,30.2,29.1,00.0,39.0,32.0,24.5,0000.0,0008.33,0004.03,0003.45
2022-08-27 06:39:00,,0825.3,5.00,0.00,30.2,29.1,00.0,39.0,32.1,24.3,0000.0,0008.24,0004.00,0003.45
2022-08-27 06:40:00,,0825.4,5.01,0.00,30.2,29.1,00.0,39.0,32.1,24.2,0000.0,0008.24,0003.99,0003.44
2022-08-27 06:41:00,,0825.4,5.00,0.00,30.2,29.2,00.0,39.0,32.1,24.2,0000.0,0008.01,0003.94,0003.44
2022-08-27 06:42:00,,0825.4,5.00,0.00,30.3,29.2,00.0,39.0,32.1,24.1,0000.0,0008.04,0003.94,0003.43
2022-08-27 06:43:00,,0825.3,5.01,0.00,30.3,29.2,00.0,39.0,32.1,24.7,0000.0,0008.12,0003.95,0003.43
2022-08-27 06:44:00,,0825.4,5.00,0.00,30.3,29.2,00.0,39.1,32.2,25.2,0000.0,0007.99,0003.93,0003.44
2022-08-27 06:45:00,,0825.3,5.00,0.00,30.3,29.3,00.0,39.1,32.2,25.4,0000.0,0008.20,0003.97,0003.46
2022-08-27 06:46:00,,0825.3,5.00,0.00,30.4,29.3,00.0,39.1,32.2,25.3,0000.0,0008.50,0004.01,0003.48
2022-08-27 06:47:00,,0825.3,5.01,0.00,30.4,29.3,00.0,39.1,32.2,25.0,0000.0,0008.46,0004.05,0003.50
2022-08-27 06:48:00,,0825.3,4.99,0.00,30.4,29.4,00.0,39.1,32.3,24.8,0000.0,0008.65,0004.08,0003.51
2022-08-27 06:49:00,,0825.3,5.00,0.00,30.4,29.4,00.0,39.2,32.3,24.9,0000.0,0009.41,0004.10,0003.52
2022-08-27 06:50:00,,0825.3,5.01,0.00,30.4,29.4,00.0,39.2,32.3,24.7,0000.0,0010.25,0004.13,0003.53
2022-08-27 06:51:00,,0825.3,5.00,0.00,30.5,29.4,00.0,39.2,32.3,24.6,0000.0,0010.38,0004.12,0003.54
2022-08-27 06:52:00,,0825.4,5.00,0.00,30.5,29.4,00.0,39.2,32.3,24.6,0000.0,0010.52,0004.14,0003.55
2022-08-27 06:53:00,,0825.3,5.00,0.00,30.5,29.2,00.0,39.2,32.3,24.5,0000.0,0010.70,0004.15,0003.57
2022-08-27 06:54:00,,0825.3,5.00,0.00,30.5,27.8,00.0,39.2,32.2,24.5,0000.0,0010.65,0004.17,0003.57
2022-08-27 06:55:00,,0825.3,5.01,0.00,30.4,27.1,00.0,39.2,32.1,24.5,0000.0,0010.56,0004.14,0003.57
2022-08-27 06:56:00,,0825.3,4.98,0.00,30.3,27.1,00.0,39.1,32.0,24.3,0000.0,0010.36,0004.09,0003.55
2022-08-27 06:57:00,,0825.3,5.00,0.00,30.2,27.4,00.0,39.1,31.9,24.3,0000.0,0010.06,0004.04,0003.53
2022-08-27 06:58:00,,0825.3,4.99,0.00,30.2,27.7,00.0,39.0,31.9,24.3,0000.0,0009.76,0004.02,0003.52
2022-08-27 06:59:00,,0825.3,5.01,0.00,30.2,28.0,00.0,39.0,31.9,24.1,0000.0,0010.01,0003.97,0003.50
